Wind_Speed
7 7 9 12 17 17 16 14 13 13 16 17 17 16 17 16 13 16 23 28 33 27 27 28 29 28 28 29 27 26 27 26 22 21 18 17 14 14 12 10 10 10 11
7 5 5 9 14 16 17 13 13 15 16 16 17 15 16 15 14 20 22 29 31 33 28 27 28 28 27 28 29 28 26 24 21 18 17 15 13 12 11 11 12 12 13
7 4 6 8 11 11 12 12 13 14 16 15 16 15 16 14 15 20 23 27 31 31 28 25 24 29 29 28 29 28 25 23 20 19 17 14 12 12 12 12 12 13 13
10 6 8 11 10 11 13 15 17 18 18 17 16 15 15 13 15 21 26 28 34 28 27 28 30 31 32 29 28 27 24 22 21 19 16 13 11 11 11 12 13 14 13
10 10 8 10 12 12 13 14 16 17 17 17 15 14 12 13 16 21 29 26 31 30 26 28 28 33 33 31 28 26 24 22 21 19 16 12 11 10 12 13 13 13 12
8 10 9 10 12 12 13 14 14 16 18 17 13 12 14 14 17 24 26 25 27 26 25 24 27 30 32 31 28 24 23 21 19 16 13 12 11 12 13 13 13 12 11
7 9 9 10 11 12 13 14 14 14 12 14 13 12 15 19 20 21 22 27 24 26 21 25 26 31 28 30 27 23 22 20 17 15 13 11 13 14 13 12 12 11 10
5 8 11 13 13 12 11 13 14 13 13 16 10 8 5 11 19 21 24 27 22 22 21 22 24 23 21 20 20 22 21 19 17 13 13 13 14 14 12 11 10 9 7
4 7 11 14 14 13 14 15 15 14 17 14 19 5 3 2 9 18 25 30 24 23 24 24 26 28 25 21 18 18 19 18 16 14 14 14 13 14 12 10 8 7 5
6 7 11 14 14 13 13 16 15 15 19 18 10 10 12 28 3 4 19 25 25 24 21 22 23 25 23 23 20 17 19 17 16 15 15 14 13 12 10 9 7 5 5
10 7 9 12 12 13 15 17 17 17 20 19 21 22 22 15 7 4 7 17 24 19 15 20 26 26 23 20 19 17 16 16 16 16 15 13 11 11 10 8 6 5 4
11 9 10 10 11 12 16 19 18 21 22 19 24 19 24 10 11 7 10 15 15 20 22 24 22 20 17 18 18 18 18 17 15 15 14 13 12 12 9 7 7 7 6
13 12 11 11 11 12 17 20 20 21 22 22 23 21 18 17 24 23 23 15 8 7 12 13 11 11 11 14 16 18 18 15 15 14 13 13 12 9 9 9 7 7 7
10 12 13 14 14 13 17 20 19 19 23 18 24 19 14 21 31 32 24 22 7 4 6 6 9 11 11 13 14 16 14 15 14 13 14 13 10 9 10 8 7 7 6
8 7 10 16 14 16 17 18 20 18 20 26 26 24 17 22 24 26 35 25 9 6 8 8 9 11 12 12 13 13 11 14 14 14 13 11 11 12 9 8 7 7 7
9 11 10 8 9 14 16 19 18 17 18 20 23 19 24 27 22 33 32 24 16 11 5 17 10 15 12 11 14 11 12 15 15 14 13 13 12 10 10 10 9 8 8
9 12 12 11 9 9 11 14 17 18 17 19 18 20 25 24 26 25 20 11 9 14 13 15 13 13 12 13 13 11 12 14 14 15 14 11 11 13 13 11 10 11 11
13 13 17 11 8 7 5 6 13 14 16 18 17 20 20 21 18 14 15 12 9 8 14 17 17 17 14 12 12 11 12 11 10 14 13 14 15 15 14 14 14 14 15
14 15 16 19 16 12 13 10 14 16 15 16 16 17 20 16 16 14 13 11 9 9 13 17 19 16 13 11 11 9 8 8 7 11 15 16 17 18 17 17 17 17 17
16 16 17 17 15 10 12 16 17 18 17 16 14 15 14 15 16 16 12 11 13 13 14 14 15 13 12 11 10 10 8 9 10 8 13 16 20 21 21 21 21 21 21
14 16 17 17 17 15 13 15 16 16 18 18 17 15 12 14 15 12 11 10 13 13 13 12 12 11 9 8 13 11 14 12 13 15 17 17 19 20 22 27 25 24 23
13 14 14 15 16 15 18 18 15 15 15 16 15 14 15 13 12 11 9 12 12 11 11 9 8 6 7 10 12 16 13 14 15 18 21 22 20 22 22 23 25 27 25
12 14 14 13 12 13 13 15 16 14 14 14 13 12 12 11 10 10 10 9 10 9 6 5 5 7 9 14 15 15 17 18 20 12 17 21 21 26 23 25 29 30 30
11 11 10 10 10 10 9 9 10 9 9 9 8 8 7 7 7 6 6 5 4 6 10 10 10 10 10 8 14 15 15 18 20 20 16 19 21 26 24 25 28 32 34
12 11 10 9 8 8 10 10 10 9 8 7 6 5 5 5 7 9 9 9 9 8 12 12 11 12 14 15 13 12 16 16 20 21 21 23 23 24 24 25 26 30 33
13 12 10 9 9 8 11 11 12 10 10 9 8 8 13 10 14 14 10 10 8 6 6 6 10 13 16 18 20 22 18 20 21 21 20 21 21 21 20 26 27 25 29
Wind_Direction
284 269 234 225 217 203 206 206 210 204 195 186 189 194 195 194 190 172 170 172 169 156 172 179 169 163 160 155 155 154 152 148 147 143 148 136 131 125 120 116 102 95 97
278 259 209 201 194 186 189 196 197 189 178 181 186 192 191 194 184 164 161 168 175 171 175 175 161 159 157 156 156 158 153 151 151 148 142 138 134 125 122 113 101 101 99
259 232 178 180 172 172 176 179 177 173 174 176 189 189 190 194 183 171 159 166 173 166 156 149 169 165 156 157 155 157 155 152 149 146 143 138 134 125 120 109 105 107 104
258 240 202 185 175 172 173 172 172 173 176 177 183 187 192 186 179 170 163 161 152 158 160 171 170 160 157 155 152 154 154 155 150 148 144 141 134 126 121 112 113 112 103
243 243 225 184 176 172 172 171 172 173 165 179 181 186 184 176 160 154 161 157 167 163 170 169 164 159 154 156 155 152 158 157 153 149 146 142 134 134 124 118 118 106 108
250 232 215 182 172 170 170 167 171 175 172 176 177 183 173 162 150 145 153 155 153 160 158 171 171 158 158 159 153 151 156 155 152 150 147 145 142 131 128 128 117 116 113
230 208 189 178 180 177 173 168 167 167 164 172 151 138 148 147 146 146 149 149 155 156 172 179 168 165 165 157 150 152 154 153 154 156 152 145 143 138 135 130 127 126 127
197 180 177 171 175 171 172 172 171 160 160 163 149 113 128 128 133 146 146 150 158 162 170 170 160 151 150 143 143 152 151 155 158 152 147 148 149 137 137 139 130 133 134
200 196 175 167 169 178 181 183 174 169 155 154 147 120 131 155 115 129 131 144 142 152 161 158 156 148 148 153 152 155 160 159 157 157 154 159 154 144 149 145 146 145 138
130 140 167 174 178 188 183 179 173 171 155 141 134 120 129 140 114 128 112 129 138 140 150 149 149 147 155 160 160 166 169 161 159 159 161 156 158 151 156 160 157 160 159
106 121 142 150 162 166 168 169 164 159 150 137 126 124 107 102 114 113 123 108 126 143 150 150 146 146 160 165 167 170 168 167 169 166 161 158 157 166 172 165 167 165 163
89 89 124 147 137 144 154 156 150 144 142 135 126 141 135 131 146 139 128 119 115 111 132 141 146 153 164 174 161 169 174 173 166 164 164 169 171 174 174 169 160 156 146
67 63 107 130 126 126 137 140 145 139 139 138 134 135 121 164 149 126 121 119 118 103 102 111 134 140 142 146 154 164 170 168 175 171 171 176 186 180 181 172 170 161 156
73 61 96 112 107 119 130 138 137 137 132 131 136 161 144 165 141 137 137 130 105 88 99 120 140 146 156 152 167 166 171 182 182 175 181 186 189 194 192 193 197 200 206
72 59 91 113 102 109 127 134 124 125 127 138 154 183 161 163 152 154 149 141 125 138 152 170 154 169 168 162 175 167 180 187 186 184 190 195 200 199 208 213 220 230 229
65 56 92 112 109 102 106 118 122 125 127 139 156 154 168 159 150 152 152 157 156 170 130 163 166 169 168 167 178 180 188 195 193 198 204 206 207 215 224 232 227 231 239
107 86 87 118 107 101 105 105 113 120 124 140 146 154 158 155 145 153 160 151 167 165 140 154 151 153 166 169 173 182 200 191 203 208 218 223 225 225 229 229 237 242 242
107 119 110 121 137 131 134 125 130 130 128 143 139 141 150 150 160 178 178 198 188 181 154 154 156 165 170 169 180 193 200 209 206 219 221 226 225 228 233 241 245 245 243
107 116 123 120 119 119 112 118 130 130 128 129 138 142 157 158 164 164 177 177 167 158 155 165 170 169 165 175 184 185 196 201 202 220 213 224 233 237 240 245 246 244 246
99 107 115 125 130 120 112 115 120 121 119 123 136 138 152 159 158 155 155 158 158 153 159 169 171 171 177 188 203 206 214 217 212 217 220 226 238 237 241 243 242 242 243
108 107 107 107 110 112 110 110 109 111 114 118 118 120 128 145 144 146 146 150 151 160 163 166 173 184 185 195 212 226 233 231 231 228 229 236 233 234 235 238 239 240 238
122 122 118 112 103 102 121 118 116 117 116 113 109 113 118 124 129 143 160 166 166 171 178 182 177 206 214 225 229 230 232 230 241 235 232 242 236 238 239 238 238 234 237
135 130 126 121 114 115 114 117 116 120 123 125 127 130 129 131 129 145 147 155 172 185 186 210 260 241 242 228 231 228 233 238 244 262 216 247 242 243 243 245 242 240 240
157 152 144 136 137 146 150 145 136 125 126 127 131 136 142 143 154 150 136 136 163 196 214 222 229 232 232 234 231 238 247 253 258 255 238 257 258 252 248 248 244 244 242
169 170 171 167 161 167 173 171 156 160 154 146 142 137 144 151 175 162 163 171 181 200 213 221 235 240 241 244 238 241 246 249 255 258 241 242 264 267 258 251 247 245 246
183 185 185 186 186 181 187 180 164 163 155 157 157 172 167 174 172 169 170 179 188 201 217 244 256 259 259 258 252 248 249 255 260 267 268 231 260 268 266 259 249 244 235
Height
768 767 767 767 768 772 776 779 781 783 786 790 791 794 797 800 802 803 807 811 814 819 827 832 836 839 844 847 851 856 859 862 866 867 871 872 874 873 875 878 877 878 879
767 766 765 766 766 769 773 777 779 781 784 788 790 793 796 799 801 802 806 812 815 820 826 831 834 840 843 847 851 857 859 863 867 868 871 873 875 875 877 878 877 880 880
766 766 765 765 765 768 771 775 778 781 784 787 789 792 795 798 800 803 807 811 818 821 825 830 836 840 843 849 852 856 862 864 866 869 872 874 877 878 879 878 879 880 882
764 763 764 765 766 768 771 773 775 778 781 785 788 790 794 797 799 802 807 812 818 824 829 834 836 838 843 849 854 858 862 865 868 870 872 876 877 880 881 879 881 882 882
761 761 762 763 765 767 770 771 772 775 780 785 787 789 793 797 800 803 807 813 819 824 829 834 836 840 844 851 855 858 863 867 868 871 873 876 878 881 881 881 883 882 884
759 759 760 762 764 766 769 771 773 774 777 783 788 791 794 797 802 806 811 816 820 827 831 838 840 843 845 851 856 860 864 868 870 872 874 877 879 880 881 883 882 884 885
756 758 759 762 764 766 768 771 774 776 779 783 788 792 795 799 804 809 814 817 824 829 834 840 842 844 848 851 855 861 864 868 870 873 876 878 879 879 882 884 883 885 885
755 756 758 761 764 766 769 771 774 776 779 783 787 791 796 804 808 812 817 822 828 831 836 841 845 848 852 854 860 862 865 869 872 874 876 879 881 879 882 885 884 886 888
755 756 758 760 763 765 768 771 772 775 778 784 787 790 795 797 807 816 821 825 831 835 839 841 844 847 852 858 862 864 867 870 872 874 877 880 880 878 882 885 886 887 888
755 756 758 760 763 764 767 770 773 775 778 784 790 792 795 800 809 819 819 827 832 836 840 844 845 850 856 859 864 868 870 871 874 875 878 879 881 881 884 886 886 886 887
758 758 758 760 762 764 767 770 773 776 781 785 790 795 798 801 810 813 821 827 836 839 842 845 848 854 859 860 865 869 871 872 874 876 878 879 881 883 885 884 885 886 886
762 761 761 761 763 765 768 771 775 779 783 788 791 797 799 808 814 814 823 829 836 841 845 849 853 857 859 864 866 867 870 873 874 876 879 880 882 883 884 885 885 884 885
766 764 764 764 765 767 769 773 778 781 785 789 793 799 805 813 814 818 823 831 838 843 847 851 856 858 861 864 867 869 871 872 876 876 879 881 884 882 884 883 884 884 884
768 768 767 768 769 771 773 776 781 785 789 794 794 804 811 814 817 820 819 828 840 846 850 853 857 860 863 865 867 869 871 874 875 875 879 881 881 883 883 882 881 882 881
771 771 772 772 775 775 778 781 784 788 792 799 804 809 812 816 820 823 826 830 836 842 847 854 858 861 863 865 866 869 872 873 875 876 878 878 879 880 881 880 880 880 880
773 773 774 777 779 781 783 785 788 793 797 802 806 810 813 818 822 825 829 835 839 841 845 852 855 860 863 864 867 870 872 872 874 875 876 876 876 877 879 879 878 878 878
779 777 777 779 781 784 786 789 791 794 797 802 808 811 816 821 824 829 835 838 840 842 843 850 854 858 863 865 867 870 870 873 871 871 873 873 874 876 877 877 875 875 875
783 783 783 783 785 787 789 792 795 797 799 803 806 812 816 820 826 830 834 837 840 841 843 848 854 860 862 862 866 870 871 870 870 868 868 872 873 875 874 873 872 872 872
787 788 788 788 789 791 794 795 797 800 803 805 810 814 819 822 825 829 834 837 838 841 844 849 855 857 858 863 867 867 868 869 868 865 866 869 870 870 871 870 869 868 868
789 791 792 794 794 794 796 798 800 803 805 809 813 815 820 824 828 831 834 837 840 841 845 849 853 854 857 861 864 864 866 866 865 864 865 868 866 866 866 865 863 862 860
793 794 795 797 798 799 800 801 802 805 808 812 815 818 821 824 826 830 833 836 839 842 844 845 849 854 854 858 860 861 862 862 863 864 865 864 863 861 858 856 855 855 854
795 796 797 799 800 802 804 806 808 810 811 814 817 821 824 826 828 831 834 838 840 844 846 847 847 850 851 855 858 860 859 859 859 859 859 857 857 854 853 850 848 848 848
797 799 800 802 803 805 807 809 811 814 817 819 822 825 827 829 832 835 837 839 841 841 843 845 846 849 850 854 856 855 854 853 853 853 852 849 849 845 845 843 842 841 841
798 800 802 804 806 807 809 810 812 815 818 820 822 825 827 829 831 833 833 835 839 841 844 845 848 849 850 851 851 851 851 850 849 848 846 844 840 837 837 836 834 833 834
798 801 803 805 806 808 810 812 814 817 819 821 822 824 826 827 828 831 836 839 841 843 843 844 844 844 844 844 845 846 846 845 840 838 837 837 833 830 829 829 828 825 827
797 800 803 805 806 808 809 811 814 817 819 822 824 825 827 831 832 835 838 840 840 840 840 841 841 841 841 840 840 840 841 838 835 831 831 830 830 827 820 819 819 820 819